Terminal Aerodrome Forecast
Issued by NWS

Home | Current Version | Previous Version | Graphics & Text | Print | Product List | Glossary On
Versions: 1 2 3 4 5 6 7 8 9 10 11 12 13 14 15 16
013
FTUS43 KMPX 210520
TAFRWF
TAF
KRWF 210520Z 2106/2206 15005KT P6SM BKN200
     FM211700 16008KT P6SM SKC=

USA.gov is the U.S. government's official web portal to all federal, state and local government web resources and services.